[[{"header":{"parameterUnit":"m.s-1","parameterCategory":2,"la1":30.2991,"la2":30.254,"lo1":-89.0895,"lo2":-89.0444,"dy":0.0017,"dx":0.0017,"nx":28,"ny":28,"refTime":"2025-01-01T09:00:00:Z","depth":"0","parameterNumber":2,"parameterNumberName":"U-component_of_CURRENTS"},"data":[0,0,0,0,0,0,0,0,0,0,0,0,0,0,0,0,0,0,0,0,0,0,0,0,0,0,0,0,0,0,0,0,0,0,0,0,0,0,0,0,0,0,0,0,0,0,0,0,0,0,0,0,0,0,0,0,0,0,0.2559,0.2559,0,0.2534,0.2534,0.2534,0.2511,0.2511,0.2511,0.2511,0.2499,0.2499,0.2499,0,0,0,0,0,0,0,0,0,0,0,0,0,0.2599,0.2598,0.2559,0.2559,0.2559,0.2534,0.2534,0.2533,0.2511,0.2511,0.2511,0.2511,0.2499,0.2499,0.2499,0,0,0,0,0,0,0,0,0,0,0,0,0,0.2577,0.2598,0.2559,0.2546,0.2545,0.2535,0.2534,0.2533,0.2511,0.2511,0.2511,0.251,0.2499,0.2499,0.2499,0.25,0,0,0.2498,0.2498,0,0,0,0,0,0,0,0,0.2578,0.2575,0.2548,0.2547,0.2546,0.2527,0.2544,0.2523,0.2511,0.2522,0.2511,0.251,0.2511,0.251,0.2503,0.2499,0.2499,0.2498,0.2498,0.2497,0.2497,0,0,0,0,0,0,0,0.258,0.2576,0.2547,0.2548,0.2547,0.2546,0.2542,0.254,0.2516,0.2521,0.252,0.252,0.251,0.2503,0.2502,0.2499,0.2498,0.2498,0.2497,0.2497,0.2522,0.2523,0,0,0,0,0,0,0.2586,0.2578,0.2548,0.2547,0.2564,0.2545,0.2541,0.2532,0.2516,0.2514,0.252,0.2519,0.2504,0.2503,0.2502,0.253,0.2497,0.2497,0.2497,0.2521,0.2522,0.2523,0,0,0,0,0,0,0.2587,0.2583,0.2549,0.2564,0.256,0.2545,0.2534,0.2531,0.253,0.2516,0.2513,0.2523,0.2503,0.2502,0.2504,0.2528,0.2497,0.2497,0.252,0.2522,0.2523,0.2568,0,0,0,0,0,0,0.2588,0.2583,0.2581,0.2564,0.2559,0.255,0.2535,0.2531,0.2531,0.2529,0.2517,0.2515,0.2503,0.2505,0.2504,0.2527,0.2496,0.2519,0.2521,0.2522,0.2565,0.257,0.2575,0,0,0,0,0,0.2589,0.2582,0.2581,0.2578,0.2555,0.2551,0.2548,0.2536,0.2531,0.2533,0.2524,0.2516,0.2515,0.2505,0.2504,0.2527,0.2518,0.252,0.2522,0.2563,0.2569,0.2575,0,0,0,0,0,0,0.2585,0.2579,0.2577,0.2565,0.2564,0.2548,0.2547,0.2542,0.2536,0.2535,0.2521,0.2519,0.2535,0.2522,0.2512,0.254,0.2518,0.252,0.2549,0.2555,0.256,0.2571,0.2496,0,0,0,0,0,0.2588,0.2586,0.258,0.2571,0.2573,0.2564,0.2561,0.2556,0.2548,0.2545,0.2537,0.2534,0.2541,0.254,0.2541,0.255,0.2556,0.2566,0.2571,0.2575,0.2584,0.2614,0.2623,0.253,0.253,0.2529,0,0,0.2582,0.258,0.2577,0.2572,0.2569,0.2575,0.2561,0.2561,0.2568,0.2546,0.2551,0.2552,0.2548,0.2562,0.2568,0.2554,0.2605,0.2578,0.2581,0.2588,0.2617,0.2627,0.2635,0.2531,0.2531,0.253,0,0,0.2574,0.2571,0.2572,0.2579,0.2584,0.2583,0.2588,0.2582,0.2583,0.2588,0.2583,0.2597,0.2591,0.2601,0.2604,0.2636,0.2633,0.2637,0.2666,0.2696,0.2704,0.2711,0.273,0.2738,0.2635,0.2635,0.2635,0,0.2568,0.2566,0.2572,0.258,0.2586,0.2591,0.2597,0.2604,0.2599,0.2608,0.2595,0.2619,0.2614,0.2648,0.2657,0.2649,0.2659,0.2644,0.2703,0.271,0.2717,0.2734,0.2743,0.2637,0.2637,0.2637,0.2637,0,0.2566,0.2569,0.2571,0.2587,0.2598,0.2602,0.2619,0.2632,0.2636,0.2643,0.2675,0.2673,0.2687,0.2694,0.2682,0.2733,0.2723,0.271,0.269,0.2729,0.2745,0.2753,0.2641,0.264,0.2639,0.2639,0,0,0.2528,0.2563,0.2562,0.2573,0.2602,0.2604,0.2637,0.2661,0.2689,0.2697,0.2729,0.2747,0.2754,0.2759,0.2758,0.2783,0.2835,0.2766,0.2766,0.2787,0.2898,0.2852,0.2856,0.2834,0.2835,0.2837,0.2889,0,0.2519,0.2534,0.2559,0.2575,0.2582,0.2615,0.2646,0.2677,0.2707,0.2744,0.2765,0.2797,0.2778,0.2793,0.2817,0.2838,0.286,0.2822,0.2854,0.2855,0.2812,0.2865,0.2763,0.2798,0.2897,0.2899,0.29,0,0.2501,0.2516,0.2528,0.257,0.2578,0.2596,0.2652,0.2683,0.2752,0.2783,0.2828,0.2846,0.2894,0.2866,0.2925,0.2902,0.2903,0.2912,0.2914,0.2863,0.2825,0.2775,0.281,0.2768,0.2913,0.2912,0.2911,0,0.2454,0.2489,0.2497,0.2509,0.2563,0.258,0.2614,0.2686,0.2728,0.2813,0.2851,0.2911,0.2942,0.2967,0.2979,0.2959,0.3038,0.3009,0.2969,0.2965,0.2881,0.2866,0.2881,0.3047,0.3047,0.3047,0.3047,0,0.2422,0.2426,0.2474,0.2474,0.2501,0.255,0.2596,0.2653,0.2742,0.2793,0.2861,0.2909,0.2969,0.3011,0.3012,0.3023,0.3064,0.2991,0.2984,0.2892,0.2879,0.2838,0.2816,0.3049,0.3049,0.3048,0.3048,0,0.236,0.2391,0.2402,0.2455,0.2474,0.249,0.2578,0.2616,0.2713,0.2783,0.281,0.2925,0.2988,0.3032,0.3089,0.3061,0.2999,0.3065,0.2949,0.2927,0.2831,0.2814,0.2713,0.2622,0.3032,0.3032,0.3031,0,0.2326,0.2325,0.2374,0.2382,0.2402,0.2443,0.2476,0.2587,0.2635,0.2776,0.2798,0.2903,0.2961,0.3043,0.304,0.3056,0.297,0.2946,0.2885,0.2828,0.2805,0.2698,0.2621,0.2792,0.2789,0.2787,0.2785,0,0.2264,0.2283,0.2295,0.2318,0.2341,0.2376,0.243,0.2468,0.259,0.2656,0.2748,0.2816,0.292,0.2914,0.2951,0.2938,0.2815,0.2902,0.2879,0.2652,0.2502,0.241,0.2754,0.2767,0.2769,0.277,0.2771,0.2772,0.2215,0.221,0.223,0.2244,0.2267,0.2284,0.2287,0.2354,0.2416,0.2491,0.2623,0.2689,0.2775,0.2827,0.2798,0.2716,0.2691,0.2632,0.2629,0.2535,0.2404,0.2705,0.2686,0.2687,0.2689,0.269,0.269,0,0.2146,0.2149,0.2157,0.2161,0.2148,0.2196,0.2231,0.222,0.2237,0.2357,0.2428,0.2518,0.2536,0.2588,0.257,0.2475,0.2344,0.2405,0.2245,0.219,0.2502,0.2449,0.2335,0.2335,0.2335,0.2335,0.2335,0.2335,0.211,0.2085,0.2088,0.2037,0.2038,0.199,0.1988,0.1992,0.2052,0.21,0.216,0.2258,0.244,0.2489,0.2413,0.2337,0.2158,0.205,0.2042,0.2302,0.2323,0.2342,0.2289,0.2143,0.2143,0.1628,0.1624,0.1622]},{"header":{"parameterUnit":"m.s-1","parameterCategory":2,"la1":30.2991,"la2":30.254,"lo1":-89.0895,"lo2":-89.0444,"dy":0.0017,"dx":0.0017,"nx":28,"ny":28,"refTime":"2025-01-01T09:00:00:Z","depth":"0","parameterNumber":3,"parameterNumberName":"V-component_of_CURRENTS"},"data":[0,0,0,0,0,0,0,0,0,0,0,0,0,0,0,0,0,0,0,0,0,0,0,0,0,0,0,0,0,0,0,0,0,0,0,0,0,0,0,0,0,0,0,0,0,0,0,0,0,0,0,0,0,0,0,0,0,0,-0.0118,-0.0118,0,-0.0152,-0.0152,-0.0153,-0.0175,-0.0174,-0.0174,-0.0174,-0.0239,-0.0241,-0.0243,0,0,0,0,0,0,0,0,0,0,0,0,0,-0.0105,-0.0105,-0.0117,-0.0118,-0.0118,-0.0151,-0.0152,-0.0153,-0.0175,-0.0174,-0.0174,-0.0174,-0.0239,-0.0241,-0.0243,0,0,0,0,0,0,0,0,0,0,0,0,0,-0.0123,-0.0105,-0.0117,-0.0131,-0.0133,-0.0151,-0.0152,-0.0153,-0.0175,-0.0174,-0.0174,-0.0174,-0.0238,-0.0241,-0.0243,-0.0261,0,0,-0.0251,-0.0253,0,0,0,0,0,0,0,0,-0.0122,-0.0124,-0.0129,-0.0131,-0.0132,-0.0157,-0.0171,-0.019,-0.0175,-0.0161,-0.0174,-0.0174,-0.0213,-0.0218,-0.0227,-0.0264,-0.0267,-0.0252,-0.0253,-0.0254,-0.0255,0,0,0,0,0,0,0,-0.0121,-0.0123,-0.0133,-0.0129,-0.0131,-0.0147,-0.015,-0.0175,-0.0189,-0.0162,-0.0163,-0.0164,-0.0215,-0.0224,-0.0229,-0.0268,-0.0252,-0.0254,-0.0256,-0.0257,-0.0304,-0.0304,0,0,0,0,0,0,-0.0111,-0.0121,-0.0132,-0.0134,-0.0125,-0.0147,-0.015,-0.0151,-0.0188,-0.0193,-0.0164,-0.0165,-0.022,-0.0226,-0.0231,-0.0229,-0.0254,-0.0257,-0.0258,-0.0305,-0.0304,-0.0304,0,0,0,0,0,0,-0.0111,-0.0112,-0.013,-0.0127,-0.013,-0.0147,-0.0148,-0.0151,-0.0156,-0.0189,-0.0195,-0.0164,-0.022,-0.0227,-0.0244,-0.0233,-0.0258,-0.026,-0.0305,-0.0304,-0.0304,-0.0242,0,0,0,0,0,0,-0.011,-0.0111,-0.011,-0.0126,-0.013,-0.0131,-0.0148,-0.0152,-0.0156,-0.0158,-0.0192,-0.0198,-0.0221,-0.0239,-0.0246,-0.0237,-0.0263,-0.0305,-0.0305,-0.0304,-0.0244,-0.0239,-0.0235,0,0,0,0,0,-0.011,-0.0102,-0.011,-0.0111,-0.0127,-0.013,-0.0133,-0.0147,-0.0156,-0.0153,-0.0175,-0.0196,-0.024,-0.0241,-0.0249,-0.0241,-0.0306,-0.0305,-0.0304,-0.0246,-0.024,-0.0235,0,0,0,0,0,0,-0.0094,-0.0104,-0.0113,-0.0109,-0.0115,-0.0133,-0.0132,-0.0143,-0.0159,-0.0162,-0.0194,-0.0201,-0.0213,-0.0236,-0.0236,-0.0253,-0.0276,-0.0277,-0.0229,-0.0224,-0.0219,-0.0201,-0.0265,0,0,0,0,0,-0.009,-0.0088,-0.01,-0.0096,-0.0098,-0.0116,-0.012,-0.0128,-0.0143,-0.015,-0.0173,-0.0198,-0.0218,-0.0227,-0.0251,-0.026,-0.0279,-0.026,-0.0255,-0.0251,-0.0242,-0.0258,-0.0254,-0.0301,-0.0301,-0.0301,0,0,-0.0084,-0.0088,-0.0088,-0.0093,-0.0101,-0.0091,-0.0118,-0.0118,-0.011,-0.0156,-0.0155,-0.0186,-0.0218,-0.0226,-0.0233,-0.0242,-0.0248,-0.025,-0.0246,-0.0239,-0.0257,-0.0252,-0.0248,-0.0301,-0.0301,-0.0301,0,0,-0.0058,-0.0072,-0.0058,-0.006,-0.0066,-0.0074,-0.007,-0.0085,-0.0092,-0.0099,-0.0128,-0.0147,-0.018,-0.0195,-0.0208,-0.0193,-0.0225,-0.0205,-0.0162,-0.0178,-0.0174,-0.0171,-0.0188,-0.0187,-0.0198,-0.0198,-0.0198,0,-0.0047,-0.0031,-0.0054,-0.0037,-0.0031,-0.006,-0.0037,-0.0049,-0.0067,-0.0066,-0.0089,-0.0131,-0.0162,-0.0164,-0.016,-0.0181,-0.0197,-0.0179,-0.0171,-0.0168,-0.0166,-0.0184,-0.0183,-0.0195,-0.0196,-0.0196,-0.0196,0,-0.0008,0.0004,0.0013,0.0025,0.0027,0.004,0.0026,0.0021,0.0004,-0.0005,-0.0019,-0.0066,-0.0085,-0.0103,-0.0128,-0.0124,-0.0144,-0.0165,-0.0181,-0.0157,-0.0178,-0.0179,-0.0191,-0.0192,-0.0193,-0.0194,0,0,0.0028,0.004,0.0046,0.0064,0.0062,0.0073,0.008,0.0088,0.0106,0.0066,0.0082,0.0034,0.0007,-0.0011,-0.005,-0.0069,-0.0072,-0.0104,-0.0107,-0.0114,-0.0107,-0.0119,-0.0121,-0.0092,-0.0091,-0.0091,-0.0128,0,0.0072,0.0118,0.011,0.0156,0.0181,0.0156,0.0171,0.0168,0.0159,0.0164,0.0108,0.0103,0.0043,0.0034,0.0006,-0.0051,-0.0071,-0.006,-0.0136,-0.0138,-0.0146,-0.0121,-0.0106,-0.0137,-0.0129,-0.0129,-0.0129,0,0.0122,0.0147,0.0197,0.0229,0.0237,0.0254,0.0278,0.0291,0.0281,0.0272,0.025,0.0207,0.0171,0.0113,0.0033,0.0042,-0.0023,-0.0076,-0.0079,-0.011,-0.015,-0.0162,-0.0139,-0.0259,-0.013,-0.013,-0.013,0,0.0171,0.0213,0.0257,0.0267,0.0291,0.0305,0.0319,0.0325,0.0356,0.0346,0.036,0.0302,0.028,0.0189,0.0073,0.0057,-0.0019,-0.0055,-0.0129,-0.0131,-0.0142,-0.0146,-0.0237,-0.0109,-0.0109,-0.0109,-0.0108,0,0.0227,0.0264,0.0282,0.0306,0.0366,0.0359,0.0423,0.0424,0.0447,0.0497,0.0423,0.0443,0.0299,0.0232,0.0112,-0.0002,0.0012,-0.0112,-0.0136,-0.0121,-0.0122,-0.0248,-0.0335,-0.011,-0.011,-0.0109,-0.0109,0,0.0277,0.0286,0.0342,0.0374,0.039,0.0433,0.0496,0.0545,0.0549,0.0608,0.0606,0.0559,0.0473,0.0321,0.018,0.0064,-0.0132,-0.0104,-0.0078,-0.0098,-0.0281,-0.0365,-0.0492,-0.0558,-0.0186,-0.0186,-0.0187,0,0.0307,0.0339,0.0396,0.0437,0.0454,0.0517,0.0566,0.0595,0.0658,0.0686,0.0723,0.0655,0.0631,0.0418,0.02,-0.0002,-0.0141,-0.0129,-0.0161,-0.028,-0.0391,-0.0449,-0.0499,-0.0155,-0.0156,-0.0156,-0.0156,0,0.0367,0.0382,0.0427,0.051,0.0568,0.0647,0.0719,0.0783,0.082,0.087,0.092,0.0899,0.0691,0.0506,0.0219,0.0066,-0.0221,-0.0136,-0.0265,-0.0376,-0.0439,-0.0516,-0.0149,-0.0156,-0.0156,-0.0156,-0.0156,-0.0156,0.0411,0.0453,0.0509,0.0591,0.0663,0.0759,0.0835,0.092,0.1023,0.1096,0.1071,0.1072,0.0781,0.0402,0.0179,-0.0213,-0.0238,-0.033,-0.0421,-0.0467,-0.0533,-0.0166,-0.0199,-0.0199,-0.0199,-0.0199,-0.0199,0,0.0467,0.0511,0.0589,0.0683,0.0771,0.08,0.0927,0.1009,0.1134,0.1203,0.1245,0.1107,0.0763,0.0384,-0.0142,-0.043,-0.0546,-0.06,-0.0682,-0.072,-0.039,-0.039,-0.0458,-0.0458,-0.0458,-0.0458,-0.0457,-0.0457,0.0495,0.0572,0.0608,0.0753,0.0825,0.0948,0.1023,0.1142,0.1226,0.1311,0.1315,0.128,0.0984,0.0083,-0.0544,-0.0703,-0.0924,-0.0978,-0.1094,-0.0873,-0.0854,-0.0837,-0.0856,-0.102,-0.1021,-0.1367,-0.1371,-0.1374]}],[{"header":{"parameterUnit":"m.s-1","parameterCategory":2,"la1":30.2991,"la2":30.254,"lo1":-89.0895,"lo2":-89.0444,"dy":0.0017,"dx":0.0017,"nx":28,"ny":28,"refTime":"2025-01-01T09:00:00:Z","depth":"2","parameterNumber":2,"parameterNumberName":"U-component_of_CURRENTS"},"data":[0,0,0,0,0,0,0,0,0,0,0,0,0,0,0,0,0,0,0,0,0,0,0,0,0,0,0,0,0,0,0,0,0,0,0,0,0,0,0,0,0,0,0,0,0,0,0,0,0,0,0,0,0,0,0,0,0,0,0.2363,0.2363,0,0.2354,0.2354,0.2354,0.2351,0.2351,0.2352,0.2352,0.2359,0.2359,0.2359,0,0,0,0,0,0,0,0,0,0,0,0,0,0.2386,0.2386,0.2363,0.2363,0.2363,0.2354,0.2354,0.2354,0.2351,0.2351,0.2352,0.2352,0.2359,0.2359,0.2359,0,0,0,0,0,0,0,0,0,0,0,0,0,0.2375,0.2385,0.2363,0.2363,0.2363,0.2354,0.2354,0.2354,0.2351,0.2351,0.2352,0.2352,0.2359,0.2359,0.2359,0.2352,0,0,0.2359,0.2359,0,0,0,0,0,0,0,0,0.2375,0.2374,0.2363,0.2363,0.2363,0.2356,0.2365,0.2354,0.2351,0.2353,0.2352,0.2352,0.236,0.236,0.2355,0.2352,0.2352,0.2359,0.2359,0.2359,0.2359,0,0,0,0,0,0,0,0.2376,0.2374,0.2358,0.2363,0.2363,0.2365,0.2364,0.2362,0.2354,0.2353,0.2354,0.2355,0.236,0.2355,0.2355,0.2352,0.2359,0.2359,0.2359,0.2359,0.2393,0.2394,0,0,0,0,0,0,0.238,0.2375,0.2358,0.2358,0.2372,0.2365,0.2363,0.2356,0.2354,0.2354,0.2355,0.2355,0.2355,0.2355,0.2355,0.2393,0.2359,0.2359,0.2359,0.2392,0.2393,0.2394,0,0,0,0,0,0,0.2381,0.2378,0.2358,0.2368,0.2366,0.2364,0.2356,0.2356,0.2364,0.2355,0.2356,0.2366,0.2355,0.2355,0.2366,0.2392,0.2359,0.2359,0.2391,0.2392,0.2393,0.244,0,0,0,0,0,0,0.2381,0.2378,0.238,0.2368,0.2366,0.2365,0.2356,0.2355,0.2364,0.2365,0.2364,0.2364,0.2355,0.2366,0.2365,0.2391,0.2359,0.239,0.2391,0.2393,0.2437,0.2443,0.2447,0,0,0,0,0,0.2382,0.2378,0.238,0.2379,0.2366,0.2366,0.2365,0.2364,0.2365,0.2371,0.237,0.2365,0.2377,0.2366,0.2366,0.2392,0.2389,0.2391,0.2393,0.2435,0.2442,0.2447,0,0,0,0,0,0,0.2378,0.2377,0.2379,0.2373,0.2378,0.2367,0.2372,0.2373,0.2375,0.238,0.237,0.2371,0.2394,0.2383,0.2372,0.2408,0.2385,0.2387,0.2417,0.2423,0.2428,0.2439,0.2359,0,0,0,0,0,0.2382,0.2384,0.2383,0.238,0.2384,0.2382,0.2385,0.2386,0.2385,0.2386,0.2386,0.2389,0.24,0.2403,0.2408,0.242,0.2424,0.2439,0.2444,0.2449,0.2458,0.2486,0.2495,0.2401,0.2401,0.2401,0,0,0.2379,0.238,0.238,0.2381,0.2384,0.2393,0.2384,0.2393,0.2405,0.2387,0.2405,0.2409,0.2408,0.2428,0.2437,0.2423,0.2478,0.2451,0.2455,0.2462,0.2489,0.2499,0.2507,0.2402,0.2402,0.2402,0,0,0.2377,0.2378,0.2384,0.2393,0.2406,0.2407,0.2415,0.2417,0.2425,0.2438,0.2437,0.2457,0.246,0.247,0.2474,0.251,0.2507,0.2514,0.2545,0.2572,0.2581,0.2588,0.2604,0.2613,0.2512,0.2512,0.2512,0,0.2376,0.2378,0.2386,0.2398,0.2407,0.2417,0.2428,0.2438,0.2445,0.2458,0.2452,0.2484,0.2483,0.2517,0.2531,0.2523,0.2534,0.2521,0.258,0.2587,0.2594,0.2609,0.2617,0.2515,0.2515,0.2514,0.2514,0,0.2379,0.2388,0.2393,0.2414,0.2427,0.2437,0.2456,0.2475,0.2487,0.2499,0.2538,0.254,0.256,0.2568,0.2559,0.261,0.26,0.2587,0.2565,0.2606,0.2619,0.2627,0.2518,0.2518,0.2517,0.2516,0,0,0.2352,0.2389,0.2391,0.2404,0.2437,0.2442,0.2478,0.2507,0.2538,0.2555,0.2593,0.2617,0.2628,0.2634,0.2635,0.2658,0.2712,0.2645,0.2645,0.2663,0.2771,0.2719,0.2723,0.2711,0.2712,0.2714,0.2762,0,0.2352,0.2371,0.2395,0.2419,0.2429,0.2462,0.2495,0.2529,0.2563,0.2604,0.2628,0.2665,0.2651,0.2671,0.2694,0.2714,0.2736,0.27,0.2728,0.2729,0.2679,0.2732,0.2502,0.2522,0.2769,0.2771,0.2772,0,0.2342,0.2358,0.2378,0.2421,0.2431,0.2452,0.251,0.2544,0.2614,0.2648,0.2696,0.2716,0.2766,0.2742,0.2799,0.2778,0.2781,0.2788,0.2789,0.2732,0.2692,0.2521,0.2527,0.2785,0.2784,0.2783,0.2782,0,0.2303,0.2343,0.2356,0.237,0.2423,0.2445,0.2481,0.2553,0.2596,0.2683,0.2722,0.2782,0.2816,0.284,0.2853,0.2835,0.2907,0.2878,0.2833,0.2828,0.2633,0.2609,0.2916,0.2915,0.2915,0.2915,0.2915,0,0.228,0.229,0.234,0.2344,0.2376,0.2424,0.2476,0.2532,0.262,0.2669,0.2739,0.2784,0.2844,0.2882,0.2884,0.2889,0.2931,0.2854,0.2845,0.2642,0.262,0.2844,0.2835,0.2917,0.2917,0.2916,0.2916,0,0.2229,0.2261,0.2278,0.2334,0.2354,0.2376,0.2465,0.2503,0.26,0.2669,0.2698,0.2805,0.2862,0.2903,0.2954,0.2924,0.2936,0.292,0.2678,0.264,0.283,0.2823,0.2882,0.288,0.2879,0.2878,0.2878,0,0.2202,0.2205,0.2259,0.2269,0.2293,0.234,0.2374,0.2481,0.2527,0.2663,0.2682,0.2782,0.2828,0.2897,0.2873,0.2879,0.2923,0.2656,0.258,0.2845,0.2831,0.2825,0.282,0.2336,0.2331,0.2327,0.2323,0,0.215,0.2172,0.2187,0.2215,0.2241,0.2276,0.2332,0.2366,0.2483,0.2545,0.2624,0.2681,0.2757,0.2669,0.2691,0.2657,0.2641,0.2572,0.2914,0.2387,0.2337,0.2321,0.2332,0.2286,0.229,0.2293,0.2295,0.2296,0.2111,0.2109,0.2132,0.215,0.2175,0.2188,0.2191,0.2249,0.2302,0.2354,0.2476,0.2475,0.2502,0.2428,0.2351,0.2289,0.2474,0.2341,0.2351,0.2367,0.2302,0.2253,0.2174,0.2177,0.218,0.2182,0.2184,0,0.205,0.2055,0.2066,0.2072,0.2058,0.211,0.2138,0.2109,0.2112,0.2182,0.2226,0.2049,0.2002,0.2025,0.188,0.1887,0.1845,0.1798,0.171,0.175,0.1784,0.1687,0.1397,0.1395,0.1392,0.139,0,0,0.2018,0.1996,0.1997,0.1948,0.1953,0.1902,0.1897,0.1865,0.1877,0.183,0.1803,0.1934,0.199,0.1669,0.1627,0.1486,0.1606,0.1429,0.2065,0.2004,0.2035,0.211,0.2008,0,0,0,0,0]},{"header":{"parameterUnit":"m.s-1","parameterCategory":2,"la1":30.2991,"la2":30.254,"lo1":-89.0895,"lo2":-89.0444,"dy":0.0017,"dx":0.0017,"nx":28,"ny":28,"refTime":"2025-01-01T09:00:00:Z","depth":"2","parameterNumber":3,"parameterNumberName":"V-component_of_CURRENTS"},"data":[0,0,0,0,0,0,0,0,0,0,0,0,0,0,0,0,0,0,0,0,0,0,0,0,0,0,0,0,0,0,0,0,0,0,0,0,0,0,0,0,0,0,0,0,0,0,0,0,0,0,0,0,0,0,0,0,0,0,0.0103,0.0103,0,0.0069,0.0069,0.0069,0.004,0.004,0.004,0.0039,-0.0021,-0.0023,-0.0024,0,0,0,0,0,0,0,0,0,0,0,0,0,0.0114,0.0114,0.0103,0.0103,0.0102,0.007,0.0069,0.0068,0.004,0.004,0.0039,0.0039,-0.0021,-0.0023,-0.0024,0,0,0,0,0,0,0,0,0,0,0,0,0,0.0097,0.0114,0.0103,0.0085,0.0083,0.007,0.0069,0.0068,0.004,0.004,0.0039,0.0039,-0.002,-0.0022,-0.0024,-0.003,0,0,-0.0031,-0.0032,0,0,0,0,0,0,0,0,0.0098,0.0096,0.0088,0.0086,0.0084,0.0059,0.0051,0.0034,0.004,0.0056,0.0039,0.0039,0.0004,-0.0,-0.0007,-0.0033,-0.0036,-0.0031,-0.0032,-0.0033,-0.0034,0,0,0,0,0,0,0,0.0099,0.0098,0.0089,0.0088,0.0085,0.0069,0.0066,0.0047,0.0031,0.0054,0.0052,0.005,0.0002,-0.0004,-0.0008,-0.0037,-0.0031,-0.0033,-0.0034,-0.0035,-0.0074,-0.0074,0,0,0,0,0,0,0.0107,0.0099,0.009,0.0088,0.0091,0.0069,0.0066,0.0067,0.0032,0.0026,0.005,0.0049,-0.0001,-0.0006,-0.0011,-0.0014,-0.0033,-0.0035,-0.0036,-0.0075,-0.0074,-0.0074,0,0,0,0,0,0,0.0107,0.0107,0.0091,0.0093,0.009,0.0069,0.0071,0.0066,0.0057,0.0029,0.0023,0.0045,-0.0001,-0.0008,-0.0022,-0.0017,-0.0036,-0.0038,-0.0075,-0.0074,-0.0074,-0.0025,0,0,0,0,0,0,0.0108,0.0107,0.0108,0.0094,0.009,0.0088,0.0071,0.0066,0.0057,0.0054,0.0022,0.0017,-0.0002,-0.0019,-0.0024,-0.002,-0.004,-0.0075,-0.0075,-0.0074,-0.0027,-0.0023,-0.0019,0,0,0,0,0,0.0109,0.0116,0.0108,0.0107,0.0093,0.0088,0.0085,0.0068,0.0057,0.0057,0.0037,0.0017,-0.0021,-0.002,-0.0027,-0.0023,-0.0075,-0.0075,-0.0074,-0.0028,-0.0024,-0.002,0,0,0,0,0,0,0.012,0.0113,0.0105,0.0109,0.01,0.0084,0.0081,0.0069,0.0054,0.0048,0.0021,0.0014,0.0002,-0.0017,-0.0016,-0.0034,-0.0052,-0.0053,-0.0015,-0.001,-0.0007,0.0008,-0.0041,0,0,0,0,0,0.0124,0.0127,0.0116,0.0119,0.0115,0.0097,0.0092,0.0081,0.0067,0.0059,0.0037,0.0015,-0.0001,-0.001,-0.003,-0.0037,-0.0056,-0.004,-0.0036,-0.0033,-0.0026,-0.0045,-0.0042,-0.0073,-0.0073,-0.0073,0,0,0.0128,0.0125,0.0126,0.0121,0.0111,0.0119,0.0093,0.0088,0.0093,0.0055,0.0051,0.0024,-0.0001,-0.0009,-0.0016,-0.0023,-0.0036,-0.0033,-0.0029,-0.0024,-0.0044,-0.0041,-0.0038,-0.0072,-0.0072,-0.0072,0,0,0.0148,0.0137,0.0149,0.0146,0.0137,0.0129,0.013,0.0113,0.0104,0.0097,0.0072,0.0053,0.0025,0.0013,0.0003,0.0014,-0.0018,0.0002,0.0035,0.0017,0.0019,0.0021,-0.0001,-0.0001,0.0007,0.0007,0.0007,0,0.0154,0.017,0.0151,0.0164,0.0168,0.0139,0.0157,0.0145,0.0126,0.0125,0.0101,0.0065,0.0038,0.0038,0.004,0.0023,0.0005,0.0023,0.0023,0.0024,0.0025,0.0002,0.0001,0.0009,0.0009,0.0009,0.0009,0,0.0186,0.0197,0.0203,0.0213,0.0214,0.0222,0.0209,0.0201,0.0182,0.0173,0.0158,0.0118,0.0101,0.0084,0.0064,0.0062,0.0044,0.0028,0.0015,0.0032,0.0005,0.0003,0.0013,0.0012,0.0011,0.0011,0,0,0.0211,0.0225,0.0228,0.0245,0.0242,0.025,0.0254,0.0259,0.0274,0.0233,0.0244,0.0202,0.0175,0.0161,0.0128,0.0106,0.0092,0.0074,0.0072,0.0057,0.0048,0.0033,0.0029,0.0076,0.0076,0.0076,0.0025,0,0.0245,0.0285,0.0281,0.0319,0.034,0.0319,0.0332,0.0328,0.0318,0.0318,0.0267,0.0261,0.0208,0.0198,0.0168,0.0115,0.009,0.0107,0.0029,0.0026,0.0016,0.0027,0.005,0.0007,0.0023,0.0023,0.0022,0,0.0284,0.0308,0.0351,0.0382,0.0389,0.0403,0.0424,0.0435,0.0424,0.0414,0.039,0.035,0.0312,0.026,0.0177,0.019,0.0125,0.0075,0.0071,0.0041,0.0008,-0.0008,0.0002,0.0019,0.0019,0.0019,0.002,0,0.0323,0.0361,0.04,0.0408,0.0433,0.0444,0.0457,0.0463,0.0492,0.0478,0.0488,0.043,0.0406,0.0316,0.0204,0.0193,0.0108,0.008,0.0003,0.0001,-0.0003,-0.0005,0.0021,0.0021,0.0021,0.0021,0.0021,0,0.0367,0.0399,0.0419,0.044,0.0493,0.049,0.0547,0.0547,0.0568,0.0614,0.0543,0.0557,0.0419,0.0349,0.0235,0.0118,0.0131,0.0013,-0.001,0.0014,0.0014,0.0006,0.0005,0.0019,0.002,0.002,0.002,0,0.0405,0.0415,0.0466,0.0497,0.0513,0.0551,0.0612,0.0658,0.066,0.0712,0.0709,0.0659,0.0569,0.0423,0.0282,0.0171,0.0051,0.0003,0.0036,0.0019,-0.0055,-0.0053,-0.0085,-0.0086,-0.0087,-0.0087,-0.0088,0,0.0429,0.0457,0.0512,0.055,0.0566,0.0625,0.0673,0.0702,0.076,0.0781,0.0813,0.074,0.0708,0.0492,0.0284,0.0085,0.0054,-0.003,-0.0051,-0.0045,-0.0064,-0.0061,-0.0058,-0.0041,-0.0041,-0.0041,-0.0042,0,0.0478,0.0492,0.0534,0.0612,0.0667,0.0745,0.0812,0.0871,0.0908,0.0949,0.0986,0.0958,0.0749,0.0561,0.028,0.0144,0.0001,-0.0039,-0.0033,-0.0016,-0.0007,-0.0025,-0.0022,-0.0042,-0.0042,-0.0042,-0.0042,-0.0042,0.0514,0.0553,0.0606,0.0683,0.0753,0.0846,0.0918,0.0995,0.1089,0.1141,0.1113,0.1069,0.0845,0.0496,0.0256,-0.0005,0.0006,-0.0087,-0.0085,-0.0084,-0.0067,-0.006,-0.0103,-0.0103,-0.0103,-0.0103,-0.0103,0,0.0561,0.0604,0.0677,0.0766,0.0851,0.0881,0.1002,0.1075,0.1185,0.1213,0.1235,0.1027,0.0809,0.054,0.016,-0.0061,-0.0078,-0.0135,-0.0105,-0.0102,-0.01,-0.0084,-0.0124,-0.0125,-0.0126,-0.0127,0,0,0.0585,0.0658,0.0693,0.0831,0.0899,0.1019,0.1091,0.1192,0.1242,0.1282,0.125,0.1189,0.0876,0.0601,0.0303,0.0085,0.0037,0.0039,0.0081,0.0154,0.0159,-0.0046,-0.0015,0,0,0,0,0]}],[{"header":{"parameterUnit":"m.s-1","parameterCategory":2,"la1":30.2991,"la2":30.254,"lo1":-89.0895,"lo2":-89.0444,"dy":0.0017,"dx":0.0017,"nx":28,"ny":28,"refTime":"2025-01-01T09:00:00:Z","depth":"4","parameterNumber":2,"parameterNumberName":"U-component_of_CURRENTS"},"data":[0,0,0,0,0,0,0,0,0,0,0,0,0,0,0,0,0,0,0,0,0,0,0,0,0,0,0,0,0,0,0,0,0,0,0,0,0,0,0,0,0,0,0,0,0,0,0,0,0,0,0,0,0,0,0,0,0,0,0.1419,0.142,0,0.1471,0.1471,0.1472,0.1529,0.153,0.1531,0.1532,0.1585,0.1586,0.1586,0,0,0,0,0,0,0,0,0,0,0,0,0,0.1373,0.1373,0.1419,0.142,0.1421,0.1471,0.1471,0.1472,0.1529,0.153,0.1532,0.1533,0.1585,0.1586,0.1586,0,0,0,0,0,0,0,0,0,0,0,0,0,0.1403,0.1373,0.1419,0.1457,0.1461,0.1471,0.1471,0.1472,0.1529,0.153,0.1532,0.1533,0.1585,0.1586,0.1586,0.1558,0,0,0.1588,0.1588,0,0,0,0,0,0,0,0,0.1401,0.1405,0.1451,0.1455,0.1459,0.1497,0.1475,0.1502,0.1528,0.1501,0.1532,0.1534,0.1556,0.1559,0.1562,0.1561,0.1563,0.1588,0.1589,0.1589,0.1589,0,0,0,0,0,0,0,0.1399,0.1403,0.1437,0.1452,0.1457,0.1473,0.1479,0.148,0.1517,0.1503,0.1508,0.1517,0.1559,0.1561,0.1564,0.1564,0.1588,0.1589,0.1589,0.1589,0.1652,0.1653,0,0,0,0,0,0,0.1396,0.14,0.1436,0.1439,0.1436,0.1473,0.1479,0.1482,0.1517,0.1525,0.1516,0.152,0.156,0.1563,0.1566,0.1636,0.1589,0.159,0.159,0.1651,0.1652,0.1654,0,0,0,0,0,0,0.1394,0.1398,0.1434,0.1423,0.143,0.1472,0.1474,0.1482,0.152,0.1527,0.1535,0.1551,0.1561,0.1565,0.1601,0.1635,0.159,0.159,0.1649,0.1651,0.1653,0.1711,0,0,0,0,0,0,0.1392,0.1397,0.1411,0.1423,0.143,0.1463,0.1473,0.1482,0.1522,0.1528,0.1558,0.1563,0.1563,0.16,0.1601,0.1635,0.1591,0.1648,0.165,0.1653,0.1707,0.1714,0.1721,0,0,0,0,0,0.139,0.1399,0.1411,0.1417,0.1444,0.1464,0.1469,0.1503,0.1522,0.1542,0.1567,0.1564,0.1617,0.1601,0.1603,0.1637,0.1647,0.165,0.1652,0.1704,0.1713,0.172,0,0,0,0,0,0,0.1386,0.1406,0.142,0.1435,0.146,0.1475,0.15,0.1518,0.1552,0.157,0.1575,0.1581,0.1628,0.162,0.1603,0.1663,0.1633,0.1636,0.1672,0.168,0.1687,0.1695,0.1591,0,0,0,0,0,0.139,0.1406,0.1425,0.1442,0.1457,0.1484,0.1502,0.1526,0.155,0.1569,0.159,0.1613,0.1633,0.1649,0.1663,0.1688,0.1689,0.1713,0.1719,0.1725,0.1733,0.1764,0.1775,0.1663,0.1663,0.1663,0,0,0.1393,0.1408,0.1418,0.1444,0.1468,0.1493,0.15,0.1538,0.1569,0.1566,0.1623,0.1639,0.1645,0.1683,0.1703,0.1686,0.1758,0.1729,0.1733,0.1739,0.1769,0.1779,0.1789,0.1665,0.1665,0.1665,0,0,0.1403,0.1423,0.1442,0.1465,0.1507,0.1521,0.154,0.1575,0.1606,0.1649,0.1661,0.1699,0.1726,0.1742,0.1749,0.1798,0.1794,0.1807,0.1847,0.1877,0.1887,0.1895,0.1913,0.1922,0.1808,0.1809,0.1809,0,0.1413,0.1432,0.1452,0.1479,0.1504,0.1538,0.1567,0.1596,0.1642,0.1669,0.1681,0.1745,0.1754,0.1795,0.1819,0.1815,0.1827,0.1815,0.1886,0.1895,0.1902,0.1918,0.1928,0.1812,0.1811,0.1811,0.1811,0,0.1429,0.146,0.1476,0.152,0.1547,0.1581,0.1618,0.1661,0.1702,0.1729,0.1795,0.1814,0.1853,0.1864,0.1859,0.1918,0.1909,0.1893,0.1866,0.1917,0.193,0.1939,0.1816,0.1815,0.1814,0.1813,0,0,0.1413,0.1475,0.1487,0.1514,0.1575,0.1594,0.1653,0.1705,0.1753,0.1805,0.1863,0.1906,0.1931,0.1941,0.1946,0.1973,0.2038,0.1964,0.1964,0.1981,0.2107,0.1964,0.196,0.204,0.2042,0.2044,0.2095,0,0.1427,0.1476,0.1507,0.1563,0.159,0.1641,0.169,0.1746,0.1801,0.1866,0.1903,0.1962,0.1955,0.199,0.2017,0.2037,0.2065,0.2026,0.2055,0.2056,0.1922,0.1966,0.205,0.2102,0.2104,0.2105,0.2106,0,0.1431,0.1465,0.1519,0.1585,0.1604,0.1649,0.1734,0.1785,0.1875,0.1922,0.1989,0.2022,0.2085,0.2068,0.2133,0.2112,0.2121,0.2126,0.2128,0.198,0.1929,0.204,0.2122,0.2121,0.212,0.2119,0.2118,0,0.1396,0.147,0.1513,0.1538,0.162,0.1665,0.1719,0.1809,0.1861,0.1972,0.2022,0.2095,0.2145,0.2175,0.2193,0.2179,0.2248,0.2222,0.21,0.209,0.2178,0.2169,0.2267,0.2267,0.2267,0.2267,0.2267,0,0.1379,0.1419,0.1508,0.1531,0.1594,0.166,0.1742,0.1809,0.1911,0.1967,0.2056,0.21,0.2179,0.2219,0.2223,0.2185,0.2275,0.2114,0.2095,0.2201,0.2193,0.2185,0.2174,0.2269,0.2268,0.2268,0.2268,0,0.1331,0.1391,0.1446,0.1544,0.158,0.163,0.1749,0.1798,0.191,0.1988,0.2028,0.2132,0.218,0.2227,0.2277,0.2207,0.2195,0.2159,0.2276,0.2262,0.2011,0.2004,0.2025,0.2021,0.2017,0.2014,0.2011,0,0.1307,0.1333,0.1445,0.1481,0.1533,0.1619,0.1671,0.1791,0.1836,0.1979,0.1995,0.2095,0.2144,0.2097,0.216,0.2156,0.2127,0.2106,0.2049,0.2008,0.1988,0.1987,0.1984,0.2005,0.2004,0.2003,0.2002,0,0.1259,0.1316,0.1361,0.1435,0.1498,0.1554,0.1636,0.1657,0.1781,0.1896,0.1915,0.1936,0.1982,0.2005,0.2018,0.201,0.211,0.2065,0.2072,0.2019,0.1983,0.1967,0.1969,0.1988,0.199,0.1991,0.1992,0,0.1229,0.1247,0.1316,0.1367,0.144,0.1459,0.1516,0.1555,0.1613,0.1757,0.176,0.1859,0.196,0.1929,0.1941,0.1923,0.1888,0.1815,0.1835,0.1851,0.1767,0.1695,0.16,0,0,0,0,0,0.1188,0.1193,0.1237,0.1278,0.1343,0.1383,0.1472,0.1526,0.1641,0.1608,0.1677,0.1708,0.1723,0.1776,0.1721,0.1866,0.19,0.1793,0.1828,0.1913,0.1929,0.1845,0,0,0,0,0,0,0.1157,0.1196,0.1203,0.119,0.12,0.1253,0.1304,0.1383,0.1367,0.1491,0.1508,0.1601,0.1644,0.1736,0.1688,0.1703,0.1687,0.1859,0.1854,0.1904,0.1919,0.1931,0.185,0,0,0,0,0]},{"header":{"parameterUnit":"m.s-1","parameterCategory":2,"la1":30.2991,"la2":30.254,"lo1":-89.0895,"lo2":-89.0444,"dy":0.0017,"dx":0.0017,"nx":28,"ny":28,"refTime":"2025-01-01T09:00:00:Z","depth":"4","parameterNumber":3,"parameterNumberName":"V-component_of_CURRENTS"},"data":[0,0,0,0,0,0,0,0,0,0,0,0,0,0,0,0,0,0,0,0,0,0,0,0,0,0,0,0,0,0,0,0,0,0,0,0,0,0,0,0,0,0,0,0,0,0,0,0,0,0,0,0,0,0,0,0,0,0,0.0271,0.0271,0,0.0258,0.0258,0.0258,0.0248,0.0248,0.0248,0.0248,0.0236,0.0236,0.0236,0,0,0,0,0,0,0,0,0,0,0,0,0,0.0267,0.0267,0.0271,0.0271,0.0271,0.0258,0.0258,0.0258,0.0248,0.0248,0.0248,0.0248,0.0236,0.0236,0.0236,0,0,0,0,0,0,0,0,0,0,0,0,0,0.0263,0.0267,0.0271,0.0264,0.0264,0.0258,0.0258,0.0258,0.0248,0.0248,0.0248,0.0248,0.0236,0.0236,0.0236,0.0237,0,0,0.0235,0.0235,0,0,0,0,0,0,0,0,0.0263,0.0263,0.0266,0.0265,0.0264,0.0254,0.0252,0.0251,0.0248,0.0254,0.0248,0.0248,0.0242,0.0242,0.024,0.0237,0.0236,0.0235,0.0235,0.0235,0.0235,0,0,0,0,0,0,0,0.0263,0.0263,0.0266,0.0265,0.0264,0.0254,0.0254,0.0252,0.025,0.0254,0.0253,0.0251,0.0242,0.024,0.024,0.0236,0.0235,0.0235,0.0234,0.0234,0.0234,0.0234,0,0,0,0,0,0,0.0266,0.0264,0.0267,0.0266,0.0263,0.0255,0.0254,0.0258,0.025,0.0248,0.0251,0.0251,0.0241,0.024,0.0239,0.0247,0.0235,0.0234,0.0234,0.0234,0.0234,0.0234,0,0,0,0,0,0,0.0266,0.0266,0.0267,0.0264,0.0263,0.0255,0.0259,0.0258,0.0258,0.0248,0.0246,0.0253,0.0241,0.024,0.0242,0.0246,0.0234,0.0234,0.0234,0.0234,0.0234,0.0258,0,0,0,0,0,0,0.0266,0.0267,0.0272,0.0264,0.0264,0.0267,0.0259,0.0257,0.0256,0.0256,0.0249,0.0247,0.024,0.0243,0.0242,0.0245,0.0234,0.0233,0.0234,0.0234,0.0257,0.0259,0.0261,0,0,0,0,0,0.0266,0.0274,0.0273,0.0273,0.0271,0.0267,0.0266,0.0259,0.0257,0.0258,0.0256,0.0248,0.0244,0.0243,0.0242,0.0245,0.0233,0.0234,0.0234,0.0256,0.0259,0.0261,0,0,0,0,0,0,0.0273,0.0273,0.0272,0.028,0.0275,0.0265,0.0266,0.0262,0.0261,0.0262,0.0253,0.0252,0.0254,0.0247,0.0246,0.0245,0.0236,0.0236,0.0253,0.0255,0.0257,0.0261,0.0233,0,0,0,0,0,0.0278,0.0286,0.028,0.0286,0.0285,0.0277,0.0275,0.0271,0.0267,0.0266,0.0261,0.0257,0.0254,0.0254,0.0249,0.0252,0.0232,0.0252,0.0254,0.0256,0.0257,0.0233,0.0232,0.0236,0.0236,0.0236,0,0,0.0282,0.0283,0.0288,0.0288,0.0284,0.0289,0.0275,0.0275,0.028,0.0266,0.0272,0.0264,0.0256,0.0258,0.0258,0.0254,0.0243,0.0256,0.0258,0.0258,0.0233,0.0232,0.0232,0.0236,0.0236,0.0236,0,0,0.0294,0.0296,0.0307,0.0305,0.0302,0.0298,0.03,0.0293,0.0291,0.0294,0.0285,0.0279,0.0277,0.027,0.0267,0.0277,0.0253,0.0276,0.029,0.0266,0.0265,0.0264,0.0232,0.0228,0.0277,0.0278,0.0278,0,0.0299,0.0313,0.0307,0.0314,0.0319,0.0305,0.0317,0.0312,0.0307,0.031,0.03,0.0291,0.0282,0.0284,0.0286,0.0281,0.0261,0.0283,0.0268,0.0267,0.0266,0.0233,0.0228,0.0279,0.0279,0.0278,0.0278,0,0.0317,0.0329,0.0334,0.0344,0.0346,0.0352,0.0347,0.0346,0.0342,0.0339,0.0335,0.0317,0.0312,0.0305,0.0299,0.0291,0.0277,0.0272,0.0262,0.0267,0.0232,0.0226,0.028,0.028,0.028,0.0279,0,0,0.0329,0.0345,0.0348,0.0361,0.0364,0.037,0.0376,0.0381,0.0393,0.0373,0.0379,0.0362,0.0349,0.0344,0.0328,0.0305,0.0275,0.0288,0.0286,0.0256,0.0214,0.02,0.0193,0.0268,0.0268,0.0267,0.019,0,0.0346,0.0372,0.0375,0.0402,0.0417,0.041,0.0421,0.0423,0.0421,0.0421,0.039,0.0392,0.0365,0.0364,0.0334,0.0296,0.0264,0.0295,0.0214,0.0212,0.0199,0.0188,0.0266,0.0187,0.0185,0.0184,0.0184,0,0.0364,0.0382,0.0413,0.0441,0.0447,0.0461,0.0481,0.0491,0.0485,0.0482,0.0466,0.0443,0.041,0.0383,0.0305,0.0327,0.0272,0.0232,0.0228,0.0204,0.0189,0.0182,0.0174,0.0175,0.0176,0.0176,0.0177,0,0.038,0.041,0.044,0.0448,0.0473,0.0487,0.0503,0.0512,0.0534,0.0523,0.0529,0.0482,0.0463,0.0387,0.0302,0.0304,0.0206,0.0199,0.0128,0.0126,0.0151,0.0153,0.0133,0.0133,0.0133,0.0134,0.0134,0,0.0397,0.0422,0.0452,0.0467,0.0511,0.0518,0.0564,0.0567,0.0584,0.0612,0.0567,0.0565,0.0464,0.0397,0.031,0.0203,0.0209,0.0125,0.0106,0.0162,0.0166,0.0147,0.0149,0.0131,0.0131,0.0132,0.0132,0,0.0408,0.0426,0.0466,0.0502,0.052,0.0552,0.0611,0.0644,0.0651,0.068,0.0678,0.0628,0.0541,0.0428,0.0303,0.0222,0.0117,0.0075,0.0137,0.0124,0.0047,0.0052,-0.0014,-0.0015,-0.0016,-0.0016,-0.0017,0,0.0415,0.0437,0.0495,0.0527,0.0548,0.0603,0.0644,0.0675,0.0711,0.0718,0.0728,0.0658,0.0606,0.0418,0.0297,0.0118,0.0092,0.0027,0.0037,0.0044,0.0032,0.0039,0.0044,-0.0019,-0.0019,-0.0019,-0.0019,0,0.043,0.0453,0.0488,0.0557,0.0608,0.0671,0.0728,0.0756,0.0787,0.0793,0.0767,0.0669,0.0567,0.0421,0.0279,0.0152,0.0064,0.0016,0.0017,0.0027,0.0037,0.0028,0.0035,-0.0023,-0.0022,-0.0022,-0.0022,0,0.0444,0.0472,0.0522,0.0583,0.0651,0.0713,0.0746,0.0781,0.0813,0.081,0.08,0.069,0.0628,0.0438,0.0312,0.0181,0.0146,0.0096,0.0092,0.0094,0.0148,0.0179,0.0142,0,0,0,0,0,0.0456,0.0489,0.0546,0.0613,0.0682,0.0727,0.079,0.0817,0.084,0.0825,0.0814,0.0717,0.0529,0.0456,0.0323,0.0286,0.0119,0.0124,0.0058,-0.0041,-0.0037,0.0006,0,0,0,0,0,0,0.0462,0.0515,0.0544,0.0628,0.0681,0.0762,0.0806,0.0825,0.0817,0.0816,0.0724,0.0675,0.05,0.0608,0.032,0.0281,0.0217,0.0041,0.0037,-0.0043,-0.004,-0.0037,0.0009,0,0,0,0,0]}]]